Notices

What's New in latest Release from April 7th, 2021:

- Updated Glossary, including Speed of Maximum Gust, and Total Hourly Precipitation

- Updated national and regional climate services offices contacts and prices information

- Addition of station inventory lists for 1981-2010, 1971-2000, and 1961-1990 Normals.

If you haven't already, please take our survey and provide feedback about our website: https://eccc.sondage-survey.ca/f/LanguageSelection.aspx?s=442ca660-fcf1-47c0-95a9-59707d6fd709

Hourly Data Report for November 16, 2019

SAINT JOHN A
NEW BRUNSWICK
Current Station Operator: NAVCAN

45°18'58.000" N
65°53'24.000" W
108.80 m
8104901
71609
YSJ

Download Data

Hourly Data (November 2019)
Hourly Data Report for November 16, 2019
TIME
LST
Temp Definition
°C
Dew Point Definition
°C
Rel Hum Definition
%
Precip. Amount Definition
mm

Wind Dir Definition
10's deg

Wind Spd Definition
km/h
Visibility Definition
km
Stn Press Definition
kPa
Hmdx Definition


Wind Chill Definition


Weather Definition


00:00 1.9 -3.9 65   31 32 19.3 100.09     Rain,Snow
01:00 -1.1 -8.4 58   30 36 24.1 100.26   -9 LegendNANA
02:00 -2.6 -16.3 34   30 31 24.1 100.37   -10 Mostly Cloudy
03:00 -4.2 -15.2 42   29 31 24.1 100.46   -12 LegendNANA
04:00 -5.7 -15.5 46   30 34 24.1 100.57   -14 LegendNANA
05:00 -6.9 -14.3 56   32 40 24.1 100.73   -17 Mainly Clear
06:00 -7.9 -17.5 46   31 35 24.1 100.77   -17 LegendNANA
07:00 -8.3 -17.6 47   31 32 24.1 100.91   -18 LegendNANA
08:00 -8.4 -17.3 49   31 35 24.1 101.03   -18 Mainly Clear
09:00 -7.8 -16.3 51   31 39 24.1 101.07   -18 LegendNANA
10:00 -6.8 -15.3 51   32 40 24.1 101.15   -16 LegendNANA
11:00 -5.6 -15.0 48   30 32 24.1 101.19   -14 Mainly Clear
12:00 -4.5 -14.7 45   31 25 24.1 101.16   -12 LegendNANA
13:00 -3.6 -14.7 42   31 28 24.1 101.16   -11 LegendNANA
14:00 -3.0 -14.7 41   33 37 24.1 101.09   -11 Mainly Clear
15:00 -3.0 -14.8 40   31 33 24.1 101.18   -11 LegendNANA
16:00 -3.3 -14.2 43   32 32 24.1 101.22   -11 LegendNANA
17:00 -4.1 -13.5 49   31 22 24.1 101.32   -11 Mainly Clear
18:00 -4.2 -13.8 48   29 22 24.1 101.47   -11 LegendNANA
19:00 -4.4 -13.7 49   31 30 24.1 101.51   -12 LegendNANA
20:00 -4.8 -13.5 51   30 15 24.1 101.67   -10 Clear
21:00 -5.2 -13.1 54   30 11 24.1 101.73   -10 LegendNANA
22:00 -5.7 -12.8 57   31 16 24.1 101.76   -12 LegendNANA
23:00 -6.5 -12.5 63   34 18 24.1 101.77   -13 Clear

Notes on Data Quality.

Legend

  • E = Estimated
  • M = Missing
  • NA = Not Available*
  • [empty] = Indicates an unobserved value
Date modified: